Probability
0 0 0 0 0 0 0 0 0 0 0 0 0 0 0 0 0 0 0 0 1 2 3 3 3 2 1 0 0 2 4 4 2 1 0 0 0 0 0 0 0 0 0 0
0 0 0 0 0 0 0 0 0 0 0 0 0 0 0 0 0 0 0 0 1 2 3 2 2 2 1 0 0 1 4 4 3 2 1 1 1 1 1 1 1 1 1 1
0 0 0 0 0 0 0 0 0 0 0 0 0 0 0 0 0 0 0 0 0 1 2 3 3 3 2 1 0 1 3 5 6 6 4 3 3 3 2 2 2 2 2 2
0 0 0 0 0 0 0 0 0 0 0 0 0 0 0 0 0 0 0 0 0 1 2 4 5 5 3 2 1 1 3 5 8 10 9 7 5 4 3 3 3 3 3 3
0 0 0 0 0 0 0 0 0 0 0 0 0 0 0 0 0 0 0 0 0 0 2 4 6 6 6 5 4 3 3 6 10 13 12 10 6 4 3 3 3 3 3 3
0 0 0 0 0 0 0 0 0 0 0 0 0 0 0 0 0 0 0 0 0 0 1 3 4 6 8 9 9 7 7 9 12 13 13 11 7 4 3 3 3 3 3 3
0 0 0 0 1 1 1 0 0 0 0 0 0 0 0 0 0 0 0 0 0 0 0 1 2 5 8 10 12 12 11 12 13 13 11 8 5 4 3 3 3 3 3 3
0 0 0 0 1 1 1 0 0 0 0 0 0 0 0 0 0 0 0 0 0 0 0 0 2 5 7 9 11 13 12 12 13 12 9 6 4 4 3 3 3 3 3 3
0 0 0 0 0 0 0 0 0 0 0 0 0 0 0 0 0 0 0 0 0 0 0 1 4 6 7 9 11 12 11 11 12 11 8 6 5 4 4 3 3 3 3 3
0 0 0 0 0 0 0 0 0 0 0 0 0 0 0 0 0 0 0 0 0 0 1 3 6 7 8 11 13 12 10 10 9 7 5 6 6 4 3 3 3 3 3 3
0 0 0 0 0 0 0 0 0 1 0 0 0 0 0 0 0 0 0 0 0 0 1 3 7 9 9 12 14 13 10 10 8 5 3 4 4 4 3 3 3 3 2 1
0 0 0 0 0 0 0 0 0 0 0 0 0 0 0 0 0 0 0 0 0 1 2 4 7 9 10 11 12 11 10 9 8 5 3 3 2 3 3 3 2 1 1 0
0 0 0 0 0 0 0 0 0 0 0 0 0 0 0 0 0 0 0 0 0 1 3 5 7 9 10 10 10 9 9 8 8 7 5 3 2 2 1 1 2 1 0 0
0 0 0 0 0 0 0 0 0 0 0 0 0 0 0 0 0 0 0 0 0 1 3 5 7 8 10 10 10 9 8 8 7 8 8 5 3 2 1 1 1 1 0 0
0 0 0 0 0 0 0 0 0 0 0 0 0 0 0 0 0 1 1 1 0 1 2 4 6 6 7 8 9 10 9 8 7 8 9 8 7 5 3 2 2 2 1 0
0 0 0 0 0 0 0 0 0 0 0 0 0 0 0 0 0 1 1 1 1 2 3 4 4 4 4 5 6 8 9 9 8 8 8 9 8 7 4 3 3 3 2 1
0 0 0 0 0 0 0 0 0 0 0 0 0 0 0 0 0 0 1 2 3 3 3 3 3 3 3 3 4 6 8 8 8 8 8 7 7 5 3 2 2 2 2 2
0 0 0 0 0 0 0 0 0 0 0 0 0 0 0 0 0 0 1 2 3 3 3 3 3 3 4 3 4 5 6 6 7 8 7 6 5 3 1 1 1 1 1 2
0 0 0 0 0 0 0 0 0 0 0 0 0 0 0 0 0 0 1 1 1 2 2 2 2 3 4 4 3 4 4 4 5 5 5 5 3 1 0 0 1 1 2 3
0 0 0 0 0 0 0 0 0 0 0 0 0 0 0 0 0 0 0 0 0 1 1 1 2 3 4 3 3 3 3 2 2 2 2 3 2 1 1 1 2 3 3 4
0 0 0 0 0 0 0 0 0 0 0 0 0 0 0 0 0 0 0 0 0 0 1 2 3 3 3 3 3 3 2 1 1 0 0 2 3 3 3 4 4 4 4 4
0 0 0 0 0 0 0 0 0 0 0 0 0 0 0 0 0 0 0 0 0 1 2 3 3 3 3 3 3 3 2 1 1 1 1 2 3 4 5 5 4 3 3 3
0 0 0 0 0 0 0 0 0 0 0 0 0 0 0 0 0 0 0 0 1 2 3 3 3 3 2 1 1 2 2 2 2 2 3 3 3 3 4 4 3 1 1 1
0 0 0 0 0 0 0 0 0 0 0 0 0 0 0 0 0 0 0 0 1 3 3 3 2 2 1 0 0 1 1 2 2 2 2 2 2 1 1 1 1 1 0 0
0 0 0 0 0 0 0 0 0 0 0 0 0 0 0 0 0 0 0 1 2 2 2 1 1 1 0 0 0 0 0 1 1 1 1 1 1 0 0 0 1 1 0 0
0 0 0 0 0 0 0 0 0 0 0 0 0 0 0 0 0 0 1 2 2 2 1 0 0 0 0 0 0 0 0 0 0 0 0 0 0 0 0 0 0 1 0 0
Wind_Speed
8 7 6 6 7 6 6 6 5 3 3 4 3 4 4 5 5 5 4 4 6 6 6 6 6 6 6 5 4 6 6 5 4 2 2 2 2 2 2 2 2 2 2 3
8 8 7 7 6 6 7 7 6 3 2 3 3 4 4 6 6 5 5 5 5 7 6 6 6 6 5 5 5 5 5 5 5 3 2 2 3 2 2 1 1 1 3 2
9 5 6 7 7 7 8 7 6 4 3 5 4 5 6 7 7 6 4 5 6 7 8 7 7 6 5 4 4 5 5 5 6 4 2 2 3 2 2 1 1 1 2 2
8 5 5 6 6 7 6 4 5 6 5 4 7 5 5 8 8 7 6 5 5 6 7 7 7 6 5 5 4 4 5 6 6 5 3 4 3 2 2 2 1 1 2 2
7 5 6 7 6 6 5 5 7 8 7 8 8 6 3 6 8 8 8 6 5 5 6 7 7 7 6 5 4 3 4 4 5 5 4 4 3 2 2 2 2 2 1 2
9 6 6 6 5 6 5 7 9 8 6 9 9 7 3 3 6 7 7 7 6 6 6 6 6 6 5 5 4 3 3 3 4 5 5 4 4 3 3 3 2 2 1 1
9 8 6 4 5 5 7 6 4 5 5 6 6 4 2 3 4 4 5 6 6 6 6 6 7 7 5 5 4 4 3 3 4 4 4 4 4 4 4 3 3 2 2 1
8 8 7 5 6 5 7 7 5 4 4 3 3 2 3 4 5 4 4 5 6 6 6 6 7 6 6 6 5 4 4 3 3 3 3 4 4 3 3 3 3 2 2 2
6 4 4 5 6 7 7 7 8 8 8 6 3 3 3 3 4 3 4 5 5 5 6 6 6 6 6 7 6 5 4 4 3 3 2 3 4 4 3 3 3 2 2 2
7 5 3 3 5 7 8 7 5 5 5 6 4 3 2 4 4 2 3 4 4 4 4 5 6 7 6 6 6 6 5 4 4 3 2 2 2 3 4 3 3 3 3 2
8 8 4 4 6 7 7 7 6 5 6 5 3 0 2 3 3 2 2 3 3 4 4 3 4 6 6 6 6 5 5 4 4 4 3 3 2 2 3 3 3 3 3 3
5 7 7 6 4 5 6 6 6 5 6 6 4 1 2 2 2 2 1 2 3 4 3 3 3 5 6 6 6 5 5 4 4 3 3 3 2 2 2 2 2 2 2 2
5 6 7 4 5 6 7 6 6 6 6 6 6 1 2 2 2 2 2 2 2 4 4 3 4 4 6 5 6 5 4 4 4 3 3 4 3 3 3 3 2 2 2 2
3 7 8 6 5 3 6 7 7 8 6 7 7 3 2 1 1 2 1 1 2 2 3 3 4 4 5 5 5 5 4 3 4 3 3 4 3 3 3 2 3 2 2 2
5 8 10 10 8 8 9 9 9 10 10 9 9 6 2 0 1 1 1 2 2 2 2 3 3 3 3 4 4 4 4 3 3 3 3 3 3 3 3 2 2 2 2 2
5 8 10 11 10 10 12 11 11 12 11 11 10 8 4 2 0 1 1 2 2 2 1 1 3 3 3 3 4 4 4 3 3 3 3 2 2 2 2 2 3 2 2 2
6 9 10 9 9 11 12 11 12 11 9 8 8 5 2 2 1 1 2 2 1 2 1 1 1 2 2 2 3 4 4 4 3 3 3 3 2 2 2 2 2 2 2 2
9 9 6 8 9 13 5 2 4 5 5 4 4 2 2 2 1 1 2 2 1 1 1 1 1 1 2 2 2 2 3 3 3 3 3 3 3 2 2 2 2 2 2 2
8 8 6 6 9 10 6 3 4 5 5 3 3 2 3 2 1 1 3 3 2 2 1 0 0 0 2 2 3 3 2 2 3 3 3 3 3 3 3 2 2 2 2 2
8 8 7 7 8 7 1 2 3 3 3 1 1 1 2 1 2 0 2 3 3 2 2 1 1 0 2 2 3 3 3 2 2 3 3 3 3 3 3 3 2 1 2 2
6 7 9 9 9 5 2 3 2 3 1 3 2 2 2 2 2 1 2 2 2 2 2 1 1 0 1 1 2 3 2 2 2 2 2 3 3 3 3 3 2 2 2 2
6 5 7 7 8 4 2 2 1 3 4 4 4 3 3 2 2 2 2 2 1 1 1 1 0 0 1 1 1 2 2 2 2 2 1 2 3 2 3 3 2 2 3 3
5 3 2 3 2 1 2 3 4 3 3 4 3 3 2 2 1 1 1 1 1 0 0 0 0 1 1 1 1 1 1 3 3 2 2 2 2 2 3 3 3 3 3 2
4 5 5 5 3 3 3 3 3 3 3 4 4 3 3 2 2 2 1 1 1 1 0 0 0 1 1 1 1 1 2 2 3 3 2 2 3 3 2 2 3 3 3 2
6 6 7 7 5 4 4 4 4 4 4 5 5 4 4 3 3 3 2 2 1 1 1 1 2 2 2 1 2 2 2 2 3 3 3 3 3 3 3 2 2 3 3 3
6 7 7 6 6 5 6 6 7 6 6 6 5 5 4 4 4 4 3 2 1 2 2 2 2 2 2 2 2 2 2 3 3 3 3 2 2 2 3 2 1 2 2 3
Wind_Direction
208 229 238 237 236 255 270 268 263 249 189 213 214 223 199 180 191 195 187 190 170 167 160 152 148 143 145 146 150 144 145 141 127 126 115 116 112 99 87 92 83 86 90 87
218 227 243 254 254 261 268 267 264 260 243 253 236 235 214 190 193 207 198 195 179 164 156 153 152 149 156 159 165 151 153 153 142 141 138 138 126 124 108 92 107 98 87 89
237 236 234 240 243 248 251 261 266 268 259 254 250 238 222 189 188 192 208 198 189 171 164 162 161 158 155 160 178 165 156 147 137 141 125 117 100 89 89 101 107 101 103 106
245 243 245 246 249 262 260 274 281 268 266 254 236 251 222 189 180 184 194 202 196 171 163 163 162 157 166 174 186 166 153 147 141 137 133 137 135 142 158 144 144 121 106 104
251 244 249 249 255 268 280 297 275 267 265 269 246 249 231 174 182 188 187 191 184 170 163 164 163 166 171 168 169 166 150 143 132 136 143 146 142 151 141 133 141 137 124 123
255 249 250 261 265 261 269 269 261 252 250 257 244 239 240 189 183 177 174 183 175 166 157 159 158 159 161 155 157 160 139 134 133 138 147 152 153 149 140 135 142 148 138 130
239 233 222 244 264 246 247 251 253 231 224 243 231 221 198 143 143 154 169 172 165 163 165 164 158 159 162 157 154 151 146 145 142 149 156 161 159 161 161 158 163 156 147 145
238 224 201 211 242 252 255 254 257 270 263 259 231 220 140 119 117 136 153 160 157 160 168 166 162 161 160 162 161 158 159 154 151 164 167 164 156 156 158 165 157 161 156 169
275 242 184 207 237 252 258 255 262 275 280 276 228 188 154 112 124 139 150 150 155 160 164 166 166 167 165 166 163 162 165 161 158 163 168 161 154 152 154 160 149 148 150 161
289 279 219 213 225 235 255 281 272 259 270 270 250 222 170 163 149 137 142 139 153 156 155 166 169 170 171 165 161 159 164 162 162 163 171 157 142 144 148 147 146 159 154 150
277 274 241 222 227 236 231 243 258 268 267 273 278 46 84 126 129 150 150 140 146 158 159 158 164 167 161 153 155 159 167 167 167 174 169 150 137 132 135 137 145 156 150 151
272 280 260 231 225 251 257 252 254 260 274 274 277 226 100 107 116 122 136 121 131 134 131 144 156 157 154 156 160 166 171 173 172 170 163 150 142 140 131 137 150 149 142 138
314 277 270 234 209 217 238 247 261 271 275 272 268 202 111 87 106 104 108 117 132 131 133 138 142 152 156 157 159 162 170 172 162 156 158 158 160 156 161 153 137 132 121 131
293 266 266 269 288 278 259 258 261 262 260 269 272 255 186 156 82 93 95 117 120 119 133 136 140 149 154 153 157 158 163 162 152 152 158 166 166 164 168 154 142 142 136 131
258 264 269 270 275 277 276 268 256 253 259 267 281 286 275 293 84 99 95 106 103 84 93 133 139 144 149 153 156 154 152 152 157 161 164 167 163 159 149 140 138 138 138 134
248 267 272 268 265 268 269 265 260 255 254 263 273 279 295 315 18 108 99 96 91 83 49 98 139 144 148 159 159 150 147 157 160 160 162 146 142 141 138 145 142 136 131 131
247 260 270 270 269 272 259 254 249 248 249 256 264 273 297 322 4 46 61 85 90 82 66 35 137 153 158 161 151 151 149 161 162 156 144 136 136 130 134 130 126 136 139 128
259 263 265 268 266 255 253 288 260 253 252 255 268 293 304 307 342 33 85 78 73 79 89 46 42 132 147 149 149 134 142 157 162 156 148 148 142 138 129 122 131 132 129 140
240 252 256 257 258 262 259 268 269 254 251 254 257 267 287 319 360 50 73 65 55 56 49 63 99 129 133 134 139 139 158 173 159 154 151 152 154 154 150 151 157 155 144 139
219 234 245 253 254 259 294 10 348 282 249 16 340 336 323 333 282 268 78 65 50 37 25 29 38 92 125 145 154 163 181 175 171 164 154 153 154 161 167 167 164 153 143 144
211 220 231 248 254 262 354 344 320 255 1 36 28 28 19 333 333 17 56 46 52 45 35 48 45 77 129 150 158 173 184 178 158 134 140 153 158 163 164 164 160 150 139 138
230 230 229 237 246 247 27 316 333 34 32 17 27 34 31 21 22 16 37 27 30 53 62 64 118 137 131 133 165 185 185 149 125 134 151 153 144 151 157 151 148 148 144 148
253 260 262 251 251 9 25 14 13 15 11 6 4 4 360 348 324 318 342 359 352 16 120 73 144 153 156 148 165 189 162 134 139 150 162 158 138 139 149 155 156 156 153 156
285 303 275 262 250 296 320 337 338 340 343 354 347 341 330 313 306 305 304 286 285 299 277 214 188 209 189 180 162 162 155 147 157 167 175 173 157 153 160 160 162 156 160 165
292 294 287 276 276 288 294 308 313 322 336 336 328 319 311 309 303 295 283 268 261 270 251 228 221 224 220 198 180 159 163 168 178 181 184 180 167 163 163 163 160 164 168 177
268 274 274 281 302 299 300 319 323 316 312 311 308 308 309 306 294 292 284 263 246 245 245 238 239 232 222 208 188 168 178 188 189 188 187 177 164 163 162 157 123 104 149 151